TimeCDT,TemperatureF,Dew PointF,Humidity,Sea Level PressureIn,VisibilityMPH,Wind Direction,Wind SpeedMPH,Gust SpeedMPH,PrecipitationIn,Events,Conditions,WindDirDegrees,DateUTC
12:52 AM,48.0,41.0,77,29.94,10.0,Calm,Calm,-,N/A,,Clear,0,2012-11-02 05:52:00
1:52 AM,46.0,39.9,79,29.93,10.0,Calm,Calm,-,N/A,,Clear,0,2012-11-02 06:52:00
2:52 AM,44.1,39.9,85,29.93,10.0,ENE,5.8,-,N/A,,Clear,70,2012-11-02 07:52:00
3:52 AM,45.0,39.9,82,29.91,10.0,NE,4.6,-,N/A,,Clear,50,2012-11-02 08:52:00
4:52 AM,44.1,39.9,85,29.91,10.0,ENE,3.5,-,N/A,,Clear,60,2012-11-02 09:52:00
5:52 AM,45.0,39.9,82,29.92,10.0,Calm,Calm,-,N/A,,Clear,0,2012-11-02 10:52:00
6:52 AM,44.1,39.9,85,29.91,10.0,Calm,Calm,-,N/A,,Clear,0,2012-11-02 11:52:00
7:52 AM,43.0,39.9,89,29.92,10.0,Calm,Calm,-,N/A,,Clear,0,2012-11-02 12:52:00
8:52 AM,50.0,44.1,80,29.93,10.0,East,4.6,-,N/A,,Clear,90,2012-11-02 13:52:00
9:52 AM,57.0,46.9,69,29.92,10.0,East,6.9,-,N/A,,Clear,90,2012-11-02 14:52:00
10:52 AM,66.0,50.0,56,29.91,10.0,SSE,11.5,-,N/A,,Clear,160,2012-11-02 15:52:00
11:52 AM,69.1,50.0,51,29.90,10.0,South,11.5,-,N/A,,Clear,180,2012-11-02 16:52:00
12:52 PM,73.9,51.1,45,29.88,10.0,South,11.5,-,N/A,,Clear,180,2012-11-02 17:52:00
1:52 PM,78.1,51.1,39,29.84,10.0,South,6.9,-,N/A,,Clear,180,2012-11-02 18:52:00
2:52 PM,81.0,52.0,36,29.81,10.0,South,11.5,-,N/A,,Clear,180,2012-11-02 19:52:00
3:52 PM,82.9,51.1,33,29.78,10.0,South,15.0,24.2,N/A,,Clear,180,2012-11-02 20:52:00
4:52 PM,82.0,51.1,34,29.77,10.0,South,11.5,-,N/A,,Clear,170,2012-11-02 21:52:00
5:52 PM,80.1,52.0,38,29.77,10.0,South,9.2,-,N/A,,Clear,170,2012-11-02 22:52:00
6:52 PM,75.0,48.0,38,29.79,10.0,South,9.2,-,N/A,,Clear,180,2012-11-02 23:52:00
7:52 PM,73.0,48.0,41,29.81,10.0,South,9.2,-,N/A,,Clear,180,2012-11-03 00:52:00
8:52 PM,69.1,48.0,47,29.81,10.0,South,8.1,-,N/A,,Clear,170,2012-11-03 01:52:00
9:52 PM,66.9,48.0,51,29.82,10.0,South,8.1,-,N/A,,Clear,180,2012-11-03 02:52:00
10:52 PM,66.0,48.9,54,29.82,10.0,South,6.9,-,N/A,,Clear,180,2012-11-03 03:52:00